Location: Newark
(50.8964°N, 1.4048°W)
Time: 14:10:59
(UTC+00:00)

N. Korean satellite - Pass Details

Date: 03 February 2020
Orbit: 456 x 505 km, 97.2° (Epoch: 29 February)

Event Time Altitude Azimuth Distance (km) Brightness Sun altitude
Rises 04:58:50 0° 27° (NNE) 2,573 10.7 -25.5°
Reaches altitude 10° 05:01:28 10° 48° (NE) 1,695 10.0 -25.1°
Maximum altitude 05:03:58 17° 91° (E) 1,302 9.6 -24.7°
Drops below altitude 10° 05:06:28 10° 135° (SE) 1,701 9.8 -24.3°
Sets 05:09:06 0° 155° (SSE) 2,585 10.5 -23.9°
